FOOLFOOG

Guest
Details From FOOL - Libreville Airport
To FOOG - Port Gentil
Flight Number -
Tags generated
Created
Modified
Stats Distance 81 nm / 149 km
Max Altitude 0 ft / 0 m
Waypoints 2
Social Downloads 1
Likes 0
Share VATSIM

Download

Looking for another format? Having issues loading an existing format? Contact us
Advertisement - Login to hide

Notes

Basic altitude profile: - Ascent Rate: 2500ft/min - Ascent Speed: 250kts - Cruise Altitude: 35000ft - Cruise Speed: 420kts - Descent Rate: 1500ft/min - Descent Speed: 250kts Options: - Use NATs: no - Use PACOTS: no - Use low airways: no - Use high airways: no

Route

FOOL FOOG

ID Type Via Altitude (ft/m) Position (lat/lon) Dist (leg/tot) Name
O FOOL APT - 0 / 0 0.45844 / 9.41233 - / 0 nm Libreville Airport
O FOOG APT - 0 / 0 -0.71174 / 8.75438 80 / 80 nm Port Gentil

Altitude Profile

Advertisement - Login to hide

FOOL

Details ICAO FOOL (LBV)
Name Libreville Airport
Region Gabon
Timezone Africa/Libreville (UTC+1.0)
Stats Elevation 39 ft / 12 m (AMSL)
Location 0.458442° 9.412330°
Runways 1
Magnetic Variation 1.705° W

METAR

FOOL 200700Z 14006KT 9999 SCT013 26/24 Q1013 NOSIG

Decode

TAF

TAF AMD FOOL 200519Z 2006/2112 21008KT 9999 SCT012 BKN033

Decode

Departure Runways

ID Width Length Bearing (true/mag) Surface Threshold Overrun Markings Lighting
16 148 ft / 45 m 9,852 ft / 3,003 m 154.26° / 155.97° ASPHALT 0 ft / 0 m 213 ft / 65 m PREC-APP EDGE THRESHOLD MALS
34 148 ft / 45 m 9,852 ft / 3,003 m 334.26° / 335.97° ASPHALT 0 ft / 0 m 210 ft / 64 m PREC-APP EDGE THRESHOLD

FOOG

Details ICAO FOOG (POG)
Name Port Gentil
Region Gabon
Timezone Africa/Libreville (UTC+1.0)
Stats Elevation 13 ft / 4 m (AMSL)
Location -0.711739° 8.754380°
Runways 1
Magnetic Variation 2.184° W

METAR

FOOG 200700Z 18004KT 150V210 8000 SCT008 BKN030 25/25 Q1014

Decode

TAF

TAF FOOG 200514Z 2006/2106 20011KT 9999 SCT012 BKN035= TAF AMD FOOL 200519Z 2006/2112 21008KT 9999 SCT012 BKN033

Decode

Destination Runways

ID Width Length Bearing (true/mag) Surface Threshold Overrun Markings Lighting
03 148 ft / 45 m 6,265 ft / 1,910 m 22.17° / 24.36° ASPHALT 0 ft / 0 m 0 ft / 0 m APP CENTERLINE EDGE THRESHOLD
21 148 ft / 45 m 6,265 ft / 1,910 m 202.17° / 204.36° ASPHALT 0 ft / 0 m 197 ft / 60 m APP CENTERLINE EDGE THRESHOLD

Popular Alternatives